[[{"header":{"parameterUnit":"m.s-1","parameterCategory":1,"la1":30.2991,"la2":30.254,"lo1":-89.0895,"lo2":-89.0444,"dy":0.0017,"dx":0.0017,"nx":28,"ny":28,"refTime":"2024-02-20T03:00:00:Z","depth":0,"parameterNumber":2,"parameterNumberName":"U-component_of_WINDS"},"data":[0,0,0,0,0,0,0,0,0,0,0,0,0,0,0,0,0,0,0,0,0,0,0,0,0,0,0,0,0,0,0,0,0,0,0,0,0,0,0,0,0,0,0,0,0,0,0,0,0,0,0,0,0,0,0,0,0,0,1.9824,1.9825,0,1.9947,1.9948,1.995,1.9929,1.9927,1.9925,1.9923,2.0049,2.0055,2.006,0,0,0,0,0,0,0,0,0,0,0,0,0,1.9572,1.9577,1.9823,1.9825,1.9827,1.9947,1.9948,1.995,1.9929,1.9927,1.9924,1.9922,2.0048,2.0054,2.0061,0,0,0,0,0,0,0,0,0,0,0,0,0,1.9687,1.9578,1.9823,1.9831,1.9833,1.9946,1.9948,1.995,1.993,1.9927,1.9924,1.9921,2.0046,2.0053,2.0061,2.0175,0,0,2.0086,2.0089,0,0,0,0,0,0,0,0,1.968,1.9696,1.9828,1.983,1.9833,1.9919,1.9906,2.0026,1.9931,1.9893,1.9923,1.9919,2.0009,2.002,2.005,2.0181,2.0187,2.0087,2.0092,2.0095,2.0097,0,0,0,0,0,0,0,1.9672,1.9691,1.9872,1.983,1.9833,1.9829,1.9841,1.9929,1.9967,1.9896,1.9895,1.991,2.0009,2.0042,2.0053,2.0189,2.0086,2.0094,2.0099,2.0102,2.0422,2.0426,0,0,0,0,0,0,1.9662,1.9684,1.9868,1.9876,1.9747,1.9836,1.985,1.9895,1.9966,1.9974,1.9912,1.9908,2.003,2.0043,2.0057,2.0197,2.0095,2.0103,2.0107,2.0419,2.0423,2.0427,0,0,0,0,0,0,1.9657,1.9679,1.9863,1.978,1.9803,1.9843,1.9894,1.9899,1.9931,1.9979,1.9986,1.9939,2.0028,2.0046,2.0147,2.0201,2.0106,2.0113,2.0414,2.042,2.0425,2.0476,0,0,0,0,0,0,1.965,1.9677,1.972,1.9781,1.9808,1.995,1.9897,1.9904,1.9945,1.9941,2.0005,2.0013,2.0027,2.0135,2.0155,2.021,2.012,2.041,2.0417,2.0423,2.047,2.0483,2.0494,0,0,0,0,0,1.9641,1.9729,1.9722,1.9745,1.9862,1.9953,1.9969,1.9983,1.995,1.9994,2.0025,2.0011,2.0192,2.0145,2.0167,2.0226,2.0406,2.0415,2.0423,2.0464,2.048,2.0493,0,0,0,0,0,0,1.9673,1.9737,1.973,1.9841,1.9892,1.995,2.0006,1.9999,2.0061,2.0054,2.007,2.0084,2.0187,2.0217,2.0164,2.0342,2.0294,2.0308,2.0318,2.0334,2.0346,2.0336,2.0126,0,0,0,0,0,1.9693,1.9761,1.9814,1.9906,1.9932,1.9965,2.0005,2.0012,2.0066,2.0087,2.0125,2.0178,2.0247,2.0292,2.0358,2.0474,2.0489,2.0526,2.0538,2.0547,2.0559,2.0624,2.0642,2.0454,2.0454,2.0454,0,0,1.9735,1.9779,1.9821,1.9914,1.9954,2.0026,1.9983,2.006,2.0113,2.0099,2.0197,2.0227,2.0287,2.0396,2.0447,2.0424,2.0614,2.0558,2.0565,2.0571,2.0635,2.0652,2.0668,2.046,2.0459,2.0458,0,0,1.9848,1.9887,1.997,2.0011,2.0073,2.0095,2.0115,2.0174,2.0194,2.0292,2.0284,2.0348,2.0466,2.0509,2.0547,2.068,2.0669,2.0701,2.0763,2.0827,2.0842,2.0855,2.0904,2.0921,2.0712,2.0712,2.0712,0,1.9892,1.9999,2.0013,2.0091,2.0133,2.0124,2.0208,2.0248,2.0329,2.0358,2.0332,2.0482,2.0521,2.0642,2.0675,2.0705,2.0729,2.0693,2.0839,2.0852,2.0865,2.0911,2.0929,2.0715,2.0715,2.0714,2.0714,0,2.0051,2.0126,2.0185,2.0263,2.0312,2.0393,2.042,2.0468,2.0471,2.0496,2.0597,2.0645,2.0721,2.075,2.0754,2.0873,2.0857,2.0835,2.0788,2.0886,2.093,2.0948,2.072,2.0719,2.0718,2.0717,0,0,2.0187,2.0274,2.0295,2.0332,2.04,2.0458,2.054,2.0615,2.0656,2.0712,2.0782,2.0883,2.0864,2.0906,2.0915,2.0971,2.1075,2.0942,2.0944,2.0966,2.1211,2.1227,2.1248,2.1069,2.1072,2.1075,2.1206,0,2.0307,2.0451,2.0466,2.0595,2.0664,2.0658,2.0729,2.0779,2.0805,2.0869,2.0897,2.0969,2.0937,2.0963,2.1018,2.1051,2.1124,2.1041,2.1135,2.1138,2.112,2.127,2.1288,2.1409,2.1223,2.1226,2.1228,0,2.0466,2.0528,2.0664,2.0725,2.0754,2.0818,2.0889,2.0949,2.1007,2.1022,2.1071,2.1073,2.1159,2.1108,2.1227,2.117,2.1209,2.1231,2.1237,2.1246,2.1189,2.1285,2.1448,2.1466,2.1255,2.1253,2.1251,0,2.0553,2.067,2.0767,2.0798,2.0871,2.0916,2.0949,2.1004,2.1048,2.1111,2.114,2.1212,2.1251,2.1307,2.1329,2.129,2.1447,2.1398,2.1463,2.1462,2.1496,2.1494,2.1669,2.1521,2.152,2.152,2.1519,0,2.0686,2.077,2.0807,2.0867,2.096,2.0979,2.1071,2.1102,2.1151,2.1217,2.1216,2.1278,2.1303,2.1369,2.1387,2.1484,2.1501,2.1516,2.152,2.1517,2.1515,2.1543,2.1535,2.1525,2.1524,2.1523,2.1522,0,2.0799,2.0827,2.0932,2.0994,2.1011,2.1078,2.1131,2.1189,2.1214,2.1298,2.1319,2.1359,2.1438,2.1465,2.156,2.1572,2.1685,2.1681,2.1665,2.1666,2.173,2.1724,2.1929,2.1958,2.179,2.1792,2.1793,0,2.0882,2.0947,2.1015,2.1059,2.1094,2.1165,2.1211,2.1232,2.128,2.1352,2.1402,2.148,2.1544,2.167,2.1708,2.1782,2.178,2.1848,2.1791,2.1787,2.1783,2.1779,2.1786,2.1858,2.186,2.1861,2.1862,0,2.1028,2.1039,2.1105,2.1177,2.1232,2.129,2.1346,2.1382,2.1412,2.1466,2.1547,2.1596,2.1695,2.1773,2.1848,2.1883,2.1879,2.188,2.1899,2.1896,2.1885,2.1893,2.1695,2.1875,2.1873,2.1873,2.1872,2.1871,2.1129,2.1186,2.1244,2.1319,2.1363,2.1416,2.1474,2.1507,2.1575,2.1656,2.1665,2.1752,2.181,2.1911,2.195,2.2019,2.2,2.2028,2.2035,2.2041,2.2047,2.1874,2.2033,2.2032,2.2032,2.2032,2.2032,0,2.1275,2.1312,2.138,2.1459,2.1518,2.1509,2.1571,2.1621,2.1698,2.1753,2.1816,2.1909,2.1986,2.2031,2.2108,2.2155,2.2155,2.2174,2.2171,2.218,2.2058,2.2035,2.2173,2.2173,2.2173,2.2173,2.2173,2.2173,2.1358,2.1455,2.1473,2.1593,2.163,2.1716,2.1752,2.1801,2.1845,2.195,2.2014,2.2042,2.2094,2.2175,2.2245,2.2257,2.2286,2.2307,2.2317,2.2203,2.2188,2.2174,2.2152,2.2313,2.2313,2.2433,2.2434,2.2435]},{"header":{"parameterUnit":"m.s-1","parameterCategory":1,"la1":30.2991,"la2":30.254,"lo1":-89.0895,"lo2":-89.0444,"dy":0.0017,"dx":0.0017,"nx":28,"ny":28,"refTime":"2024-02-20T03:00:00:Z","depth":0,"parameterNumber":3,"parameterNumberName":"V-component_of_WINDS"},"data":[0,0,0,0,0,0,0,0,0,0,0,0,0,0,0,0,0,0,0,0,0,0,0,0,0,0,0,0,0,0,0,0,0,0,0,0,0,0,0,0,0,0,0,0,0,0,0,0,0,0,0,0,0,0,0,0,0,0,-2.1562,-2.1564,0,-2.1689,-2.169,-2.1692,-2.1707,-2.1706,-2.1705,-2.1703,-2.1833,-2.1837,-2.1842,0,0,0,0,0,0,0,0,0,0,0,0,0,-2.1333,-2.1338,-2.1562,-2.1564,-2.1565,-2.1689,-2.169,-2.1692,-2.1707,-2.1706,-2.1704,-2.1703,-2.1831,-2.1837,-2.1842,0,0,0,0,0,0,0,0,0,0,0,0,0,-2.1444,-2.1339,-2.1562,-2.1588,-2.1591,-2.1688,-2.1691,-2.1693,-2.1708,-2.1706,-2.1704,-2.1702,-2.1829,-2.1836,-2.1843,-2.1923,0,0,-2.1864,-2.1867,0,0,0,0,0,0,0,0,-2.1437,-2.1452,-2.1582,-2.1586,-2.159,-2.168,-2.1657,-2.177,-2.1708,-2.1663,-2.1703,-2.1701,-2.1784,-2.1794,-2.1822,-2.1929,-2.1934,-2.1865,-2.1869,-2.1872,-2.1874,0,0,0,0,0,0,0,-2.143,-2.1447,-2.1612,-2.1584,-2.1589,-2.1593,-2.1607,-2.1679,-2.1732,-2.1667,-2.1669,-2.1683,-2.1785,-2.1815,-2.1825,-2.1936,-2.1864,-2.1871,-2.1875,-2.1877,-2.2115,-2.2117,0,0,0,0,0,0,-2.1417,-2.144,-2.1608,-2.1616,-2.1508,-2.1599,-2.1614,-2.1653,-2.1732,-2.1742,-2.1685,-2.1684,-2.1804,-2.1817,-2.183,-2.1928,-2.1872,-2.1878,-2.1882,-2.2113,-2.2116,-2.2118,0,0,0,0,0,0,-2.1412,-2.1432,-2.1603,-2.1529,-2.1551,-2.1605,-2.1649,-2.1657,-2.1687,-2.1745,-2.1755,-2.1706,-2.1803,-2.182,-2.19,-2.1933,-2.1881,-2.1888,-2.211,-2.2114,-2.2117,-2.2126,0,0,0,0,0,0,-2.1406,-2.143,-2.1461,-2.1529,-2.1555,-2.1671,-2.1651,-2.1661,-2.1699,-2.1698,-2.1767,-2.1777,-2.1803,-2.1889,-2.1906,-2.1941,-2.1893,-2.2108,-2.2112,-2.2116,-2.2123,-2.2129,-2.2134,0,0,0,0,0,-2.1398,-2.1459,-2.1463,-2.1483,-2.1594,-2.1673,-2.1687,-2.1717,-2.1701,-2.1733,-2.177,-2.1774,-2.1927,-2.1897,-2.1917,-2.1954,-2.2106,-2.2111,-2.2116,-2.212,-2.2128,-2.2134,0,0,0,0,0,0,-2.1393,-2.1468,-2.1473,-2.1558,-2.1609,-2.1675,-2.1716,-2.1724,-2.178,-2.1778,-2.1812,-2.1827,-2.1905,-2.1938,-2.1904,-2.2036,-2.2015,-2.2024,-2.2011,-2.2019,-2.2025,-2.2015,-2.1899,0,0,0,0,0,-2.1402,-2.1459,-2.1522,-2.159,-2.1616,-2.1661,-2.1697,-2.1715,-2.1769,-2.1791,-2.1834,-2.1886,-2.1946,-2.1984,-2.2043,-2.2128,-2.2143,-2.2163,-2.2169,-2.2173,-2.2181,-2.2228,-2.2238,-2.2134,-2.2134,-2.2134,0,0,-2.142,-2.1468,-2.1503,-2.1591,-2.1632,-2.1691,-2.1679,-2.1742,-2.1786,-2.18,-2.1878,-2.1912,-2.1972,-2.2055,-2.2094,-2.2085,-2.2213,-2.218,-2.2183,-2.2188,-2.2234,-2.2244,-2.2252,-2.2137,-2.2137,-2.2136,0,0,-2.1484,-2.1527,-2.1588,-2.1631,-2.1694,-2.1724,-2.1739,-2.1804,-2.1827,-2.1906,-2.1918,-2.1971,-2.2073,-2.2115,-2.215,-2.2231,-2.2237,-2.2249,-2.2279,-2.2325,-2.2333,-2.234,-2.2369,-2.2379,-2.2257,-2.2257,-2.2257,0,-2.1499,-2.1588,-2.1619,-2.1682,-2.172,-2.1736,-2.1799,-2.1838,-2.1917,-2.1943,-2.1932,-2.2061,-2.2103,-2.2196,-2.2215,-2.2244,-2.2261,-2.2241,-2.2329,-2.2337,-2.2344,-2.2372,-2.2383,-2.2258,-2.2257,-2.2257,-2.2257,0,-2.1604,-2.1665,-2.1708,-2.1784,-2.1827,-2.1889,-2.193,-2.197,-2.1985,-2.2016,-2.2096,-2.2147,-2.2216,-2.2239,-2.2254,-2.2335,-2.2327,-2.2322,-2.2302,-2.2355,-2.2381,-2.2392,-2.2259,-2.2259,-2.2258,-2.2258,0,0,-2.1667,-2.176,-2.1775,-2.181,-2.1881,-2.1929,-2.1992,-2.206,-2.2093,-2.2148,-2.2201,-2.2288,-2.2284,-2.2324,-2.2344,-2.2384,-2.2445,-2.2375,-2.2377,-2.2385,-2.2536,-2.2538,-2.255,-2.2449,-2.2452,-2.2453,-2.2531,0,-2.1739,-2.1852,-2.1882,-2.1978,-2.2035,-2.2051,-2.2107,-2.2156,-2.2187,-2.2241,-2.2275,-2.2335,-2.2326,-2.235,-2.2391,-2.2429,-2.2475,-2.2424,-2.2499,-2.2502,-2.2483,-2.2564,-2.2567,-2.2637,-2.2541,-2.2543,-2.2544,0,-2.1837,-2.1894,-2.1995,-2.2059,-2.2085,-2.2133,-2.2198,-2.2249,-2.2305,-2.2325,-2.237,-2.2387,-2.2453,-2.243,-2.2522,-2.2486,-2.2519,-2.2542,-2.2546,-2.2553,-2.2525,-2.2573,-2.266,-2.2671,-2.2561,-2.256,-2.2558,0,-2.1873,-2.1974,-2.2048,-2.2077,-2.2154,-2.2188,-2.2222,-2.2277,-2.2315,-2.2372,-2.2397,-2.2461,-2.2495,-2.2544,-2.2577,-2.2557,-2.2666,-2.2646,-2.2684,-2.2683,-2.2706,-2.2704,-2.2799,-2.2728,-2.2728,-2.2728,-2.2728,0,-2.1949,-2.2011,-2.2065,-2.211,-2.218,-2.2214,-2.2281,-2.2316,-2.2365,-2.2417,-2.2435,-2.2484,-2.2525,-2.258,-2.2606,-2.2678,-2.2694,-2.2712,-2.2718,-2.271,-2.2707,-2.2731,-2.2727,-2.2731,-2.273,-2.2729,-2.2729,0,-2.2,-2.2039,-2.2121,-2.2187,-2.2205,-2.2253,-2.231,-2.2354,-2.2386,-2.2452,-2.247,-2.252,-2.2585,-2.2623,-2.2705,-2.2723,-2.2803,-2.2807,-2.2783,-2.2786,-2.2823,-2.2818,-2.2936,-2.2953,-2.2871,-2.2872,-2.2872,0,-2.2046,-2.2093,-2.2165,-2.2201,-2.2235,-2.2294,-2.2334,-2.2369,-2.241,-2.2478,-2.2515,-2.2581,-2.2636,-2.2739,-2.2783,-2.2845,-2.2851,-2.2888,-2.2861,-2.2851,-2.2851,-2.2847,-2.2852,-2.2892,-2.2893,-2.2894,-2.2894,0,-2.2123,-2.214,-2.2196,-2.226,-2.2307,-2.2359,-2.241,-2.2439,-2.2483,-2.2528,-2.2595,-2.2637,-2.2721,-2.2786,-2.2853,-2.2888,-2.2898,-2.2902,-2.2915,-2.2906,-2.289,-2.2899,-2.2795,-2.2899,-2.2899,-2.2898,-2.2898,-2.2898,-2.2172,-2.2215,-2.2272,-2.2335,-2.2377,-2.2425,-2.247,-2.2508,-2.2565,-2.2636,-2.2654,-2.2724,-2.278,-2.287,-2.2907,-2.2962,-2.2956,-2.2974,-2.2978,-2.2982,-2.2982,-2.2882,-2.2974,-2.2974,-2.2974,-2.2974,-2.2974,0,-2.225,-2.2288,-2.2345,-2.2416,-2.2465,-2.2472,-2.2529,-2.257,-2.2631,-2.2682,-2.2736,-2.2813,-2.2877,-2.2926,-2.2991,-2.3026,-2.3032,-2.3042,-2.3039,-2.3047,-2.2984,-2.2967,-2.3035,-2.3035,-2.3035,-2.3035,-2.3035,-2.3035,-2.2296,-2.2369,-2.2393,-2.2487,-2.2525,-2.2594,-2.2626,-2.267,-2.2711,-2.2796,-2.2849,-2.2881,-2.2932,-2.3001,-2.306,-2.3072,-2.3095,-2.3104,-2.3117,-2.3058,-2.3051,-2.3045,-2.3029,-2.3109,-2.3109,-2.3175,-2.3176,-2.3176]}]]